Location: Asheville, NC
(35.6000°N, 82.5500°W)
Time: 14:07:31
(UTC-04:00)

Vanguard 2 Rocket - Pass Details

Date: 09 March 2018
Orbit: 553 x 3328 km, 32.9° (Epoch: 18 June)

Event Time Altitude Azimuth Distance (km) Brightness Sun altitude
Rises 23:47:39 0° 276° (W) 4,173 10.5 -56.2°
Enters shadow 23:47:48 - 276° (W) 4,133 10.5 -56.3°
Reaches altitude 10° 23:50:11 10° 269° (W) 3,497 - -56.4°
Maximum altitude 23:58:54 43° 202° (SSW) 2,639 - -57.1°
Drops below altitude 10° 00:13:19 10° 139° (SE) 5,668 - -57.9°
Sets 00:18:47 0° 133° (SE) 6,989 - -58.1°
